Wind_Speed
26 26 26 26 26 26 25 24 23 23 23 22 22 22 22 22 21 21 20 20 20 20 20 19 19 19 18 17 16 16 16 15 15 16 15 15 14 14 14 13 13 13 13 13 13 13 12 12 13
26 26 27 27 27 26 25 25 24 24 24 24 23 24 24 23 22 21 21 21 22 21 21 21 20 20 20 19 18 18 18 17 17 17 17 17 16 16 15 15 15 15 15 15 15 15 14 14 14
27 27 27 27 27 26 26 25 25 25 25 25 24 24 25 24 23 22 22 22 22 23 22 22 22 22 22 21 20 20 19 19 19 18 18 19 18 18 17 17 17 17 17 17 17 17 16 16 16
28 28 28 28 27 26 26 26 26 26 27 27 26 25 26 25 25 24 24 24 23 24 23 23 24 24 24 24 23 22 21 21 21 21 20 20 20 20 19 19 19 19 19 19 19 19 19 19 19
28 28 28 28 27 26 26 27 27 27 27 27 26 26 26 26 26 25 25 25 25 25 24 25 25 25 25 25 25 24 24 23 23 23 23 23 22 22 21 21 21 21 21 21 21 21 21 21 21
28 29 29 29 28 27 28 28 28 28 28 27 27 27 27 27 27 27 26 26 25 25 26 26 26 26 26 26 26 26 26 26 25 25 25 25 24 24 24 23 23 23 23 23 23 23 23 23 23
30 30 30 29 28 28 29 29 29 28 29 28 28 27 28 28 28 28 27 26 26 27 27 27 27 28 28 28 28 28 28 28 27 27 27 27 27 27 26 26 26 25 25 25 25 25 24 24 24
32 32 31 30 29 29 30 31 31 30 29 29 29 28 28 28 28 28 27 27 27 27 28 28 28 29 29 29 29 29 29 28 28 28 28 29 29 29 29 28 28 27 27 27 27 27 26 27 26
32 33 32 31 31 31 31 32 31 31 31 30 30 29 29 28 29 28 28 28 28 28 29 29 29 30 30 30 30 30 30 29 29 29 29 29 30 30 30 30 30 29 29 29 29 29 29 29 29
32 32 32 32 32 32 32 33 33 32 32 32 31 31 30 30 29 29 29 29 29 29 29 29 29 30 30 31 31 31 31 30 30 31 31 30 30 31 32 32 32 32 32 32 31 31 31 31 31
32 32 32 32 33 33 33 33 33 33 32 32 32 31 31 31 30 30 30 30 30 30 31 30 31 31 31 31 31 31 31 31 31 31 31 32 31 32 33 34 34 34 33 33 33 33 33 33 33
32 32 33 34 34 34 34 34 34 33 32 32 32 32 31 32 32 31 31 32 31 31 32 32 31 31 32 32 32 32 32 32 32 32 32 33 33 33 34 34 35 35 35 35 35 35 35 34 34
33 33 33 34 34 35 34 34 34 33 33 33 33 33 32 32 33 33 33 33 32 32 32 32 32 32 32 33 34 34 34 33 34 34 34 34 34 34 35 35 36 36 37 37 37 37 37 37 37
32 32 32 33 34 34 34 34 34 34 34 34 34 34 34 33 34 34 34 34 34 34 34 34 34 34 34 34 34 35 35 35 35 36 36 36 36 36 36 37 37 37 38 39 39 39 39 39 39
32 32 32 32 33 34 35 35 35 35 36 36 35 34 35 34 34 34 35 35 35 35 36 36 36 36 35 35 35 36 36 37 37 37 37 38 37 38 38 38 39 39 39 39 40 41 41 40 40
32 32 32 32 33 34 36 35 35 35 36 37 36 36 35 35 35 35 35 35 36 36 37 38 38 38 38 37 37 37 37 37 38 38 38 39 39 39 40 40 40 41 41 41 41 41 42 42 42
32 33 32 32 33 34 35 35 35 35 36 37 37 37 36 36 36 36 36 36 36 36 37 38 39 39 39 38 38 38 39 39 39 39 39 40 40 41 41 41 42 43 43 43 44 44 44 44 44
32 33 33 33 33 34 35 35 35 35 36 36 36 36 37 37 37 37 37 37 37 37 37 38 39 39 39 39 39 40 40 40 40 41 41 41 42 43 42 42 43 43 43 44 45 46 46 47 47
33 33 34 34 34 34 34 34 35 35 36 36 35 35 36 37 37 37 37 37 37 37 37 38 39 39 40 40 40 40 41 41 42 42 43 43 43 44 44 44 44 45 45 45 46 47 48 49 49
32 32 33 33 34 34 34 34 35 36 36 36 35 35 36 37 38 38 38 38 38 38 37 37 38 40 40 41 41 41 42 42 43 43 43 44 45 45 45 46 46 46 47 47 48 48 49 50 50
31 32 33 34 34 35 35 35 34 35 36 36 36 37 37 38 39 40 40 40 40 40 40 40 40 40 41 41 42 42 43 43 44 44 45 45 46 47 47 47 48 48 48 49 49 49 49 50 50
30 31 32 33 34 35 35 36 34 34 35 36 36 36 36 37 38 38 39 40 41 41 41 41 41 41 40 41 42 44 44 44 44 45 45 46 46 47 48 48 48 48 49 49 50 50 50 51 51
30 30 31 32 33 35 35 37 35 34 34 34 35 36 36 36 36 37 38 39 39 40 41 41 42 42 42 42 42 43 44 45 45 46 45 45 46 47 48 48 48 48 49 49 50 51 51 51 52
30 30 30 31 32 34 33 35 35 32 32 33 34 36 36 36 36 37 38 39 40 40 41 41 42 42 42 43 43 43 44 45 45 45 46 46 47 48 48 49 49 49 49 50 50 51 51 51 52
29 29 30 31 32 33 32 33 33 31 31 31 33 34 35 36 37 37 37 38 38 39 40 41 41 42 42 42 43 44 45 45 46 46 46 47 48 48 49 49 49 49 49 50 50 49 50 51 51
29 29 30 31 32 32 32 33 31 31 30 30 31 31 32 33 35 36 36 36 36 37 38 39 39 40 40 41 41 42 43 44 44 45 45 46 47 47 47 47 47 47 47 48 48 48 49 50 50
28 29 29 31 32 33 32 31 30 30 30 29 29 29 30 31 31 32 34 34 35 35 36 37 37 38 39 39 40 40 41 42 42 43 44 45 45 46 46 45 46 46 47 47 48 48 49 49 50
29 28 29 30 32 32 32 30 29 28 28 28 28 28 29 30 30 31 32 33 34 35 36 36 37 38 38 39 39 40 40 41 41 42 43 43 44 44 45 46 46 47 47 48 48 48 49 49 49
29 29 29 30 32 32 32 29 28 28 27 27 28 28 28 28 29 30 31 32 32 34 35 36 37 38 38 39 39 40 40 41 41 41 42 42 43 43 43 44 45 45 46 46 47 47 47 48 48
29 29 29 30 32 32 32 30 28 28 28 27 28 28 28 28 28 29 30 31 31 33 34 35 36 37 38 38 39 39 39 40 40 41 41 42 42 43 43 43 43 43 44 44 45 46 46 47 47
Wind_Direction
247 246 245 245 245 246 248 249 248 247 245 245 246 245 247 248 249 250 250 247 248 248 249 250 253 255 257 257 257 257 256 258 258 259 259 258 256 256 256 259 262 265 267 270 271 272 273 274 273
249 247 247 245 246 248 249 250 249 247 246 244 244 244 245 247 248 250 249 248 248 249 250 251 252 254 256 257 258 258 258 257 256 258 259 258 257 257 258 259 261 263 266 268 270 270 271 272 273
251 249 248 246 246 248 249 250 248 247 247 246 246 245 246 247 248 250 250 250 249 249 251 252 251 253 254 256 257 258 259 259 258 258 259 258 257 256 258 260 261 263 265 267 269 269 269 271 273
251 250 250 248 246 247 248 248 248 249 249 249 248 249 248 248 249 250 251 251 251 251 250 252 252 253 253 255 257 258 259 259 259 259 259 259 259 259 259 261 262 263 265 267 268 269 269 269 272
252 251 250 249 247 247 248 249 249 249 250 250 249 249 249 249 250 250 251 252 253 252 250 251 252 253 254 255 257 258 259 259 259 259 259 259 260 259 259 261 262 264 265 267 268 269 269 271 272
251 251 251 250 248 248 249 249 250 250 251 249 248 249 249 248 249 250 251 252 253 252 251 251 253 253 254 255 257 259 259 260 260 259 259 259 259 260 260 261 262 264 265 266 269 269 270 269 269
251 252 252 250 248 249 250 250 251 251 252 250 249 249 248 249 249 250 251 251 252 252 251 251 253 254 254 255 256 258 260 260 260 260 259 259 259 259 260 260 262 264 265 266 269 270 270 268 269
253 253 252 251 250 249 250 251 251 251 251 250 250 248 249 249 249 250 251 252 253 253 253 253 254 254 255 255 256 258 259 259 260 260 259 259 259 260 260 260 262 263 265 266 268 269 269 269 269
255 254 253 252 251 250 250 249 249 248 249 250 250 249 249 250 250 250 251 251 252 253 253 254 254 255 255 257 257 258 259 259 260 260 260 259 258 260 260 261 262 263 265 266 268 269 269 269 269
255 255 254 254 252 251 250 249 249 249 250 250 251 251 250 250 250 251 252 253 253 253 253 254 256 256 257 257 257 258 258 258 259 260 260 260 259 259 260 261 262 263 265 266 268 269 269 269 270
256 255 255 254 253 251 251 250 250 251 251 251 252 252 252 252 252 253 254 255 254 254 254 255 256 256 257 257 257 258 258 258 258 259 259 260 260 260 260 261 263 264 264 265 266 267 268 268 268
256 256 256 255 253 251 251 251 251 252 252 251 251 251 252 251 252 253 254 255 255 255 255 254 255 255 256 256 257 257 257 258 258 259 259 260 261 261 262 262 263 264 264 265 266 267 268 268 269
256 255 256 255 253 252 251 251 250 250 251 250 250 251 251 250 251 253 254 255 254 255 255 255 256 256 256 256 257 257 257 258 259 260 260 261 262 262 263 263 264 264 264 265 265 266 267 268 269
256 255 255 255 254 253 252 251 250 249 250 250 251 251 251 250 251 253 253 255 255 254 255 255 255 256 256 257 258 258 258 259 260 261 261 262 262 263 264 265 265 265 265 265 265 266 267 268 269
255 256 256 256 255 254 253 252 252 250 251 252 252 252 252 252 253 254 255 255 255 254 255 255 255 256 257 257 258 258 258 259 261 261 262 262 263 264 265 265 267 267 267 266 266 267 267 268 269
256 256 257 257 258 257 255 253 252 252 253 254 254 253 253 253 253 254 255 256 256 255 255 255 256 257 258 257 257 258 258 260 261 262 263 264 264 265 266 266 267 267 267 267 267 267 268 268 269
256 256 257 258 259 258 256 255 253 253 253 253 254 254 255 255 255 255 256 257 257 256 257 257 257 257 258 257 257 258 259 260 261 263 264 266 266 266 267 268 267 267 267 267 268 268 269 269 269
259 259 258 257 258 258 258 256 254 253 252 253 254 255 256 256 256 256 257 258 258 257 258 258 257 258 258 258 258 258 259 260 262 263 265 267 268 268 269 270 269 269 268 268 268 269 269 270 271
260 259 258 257 258 258 258 257 255 253 253 254 254 255 257 258 258 258 257 258 258 259 259 259 258 259 258 259 259 259 259 261 262 264 265 267 268 269 270 270 270 270 270 270 270 270 271 271 271
259 258 258 258 259 259 257 256 256 254 254 255 255 256 257 258 258 259 258 258 259 260 260 261 260 259 258 259 259 260 260 261 263 265 267 267 267 269 270 271 271 271 271 271 272 271 271 271 271
259 259 259 259 259 259 259 257 256 256 256 256 257 257 258 259 260 261 261 260 260 261 261 261 262 261 259 259 259 260 261 262 264 266 267 268 269 270 271 272 272 272 272 272 272 272 271 272 272
259 260 260 259 259 259 260 260 257 257 258 258 258 259 260 260 261 261 261 262 262 262 262 262 262 261 261 261 260 260 261 263 264 265 267 268 270 271 272 273 273 272 273 273 272 272 272 272 272
260 260 260 260 261 261 260 261 259 259 259 260 260 261 261 262 262 262 262 262 263 263 263 263 263 262 262 262 263 263 263 263 265 265 267 269 271 272 273 273 273 273 273 274 273 272 272 272 273
260 260 260 260 261 261 261 263 262 260 261 261 262 262 262 263 264 264 263 263 264 263 263 263 264 264 265 265 265 266 266 266 266 267 268 270 272 273 273 273 272 273 274 274 274 274 273 273 274
259 259 260 261 262 263 264 264 264 263 263 263 263 264 264 265 265 265 264 264 264 263 263 262 263 264 265 266 266 266 267 267 268 268 269 269 271 272 273 273 274 274 275 275 275 275 274 274 274
260 260 261 263 265 266 266 265 265 266 266 266 265 264 264 265 266 266 266 266 265 264 263 263 263 264 265 266 267 268 268 268 268 269 269 270 270 271 272 274 275 275 275 275 275 275 276 275 275
261 260 261 263 265 266 267 267 266 266 267 267 267 266 265 266 266 266 266 266 266 265 265 264 265 265 265 266 267 268 268 269 269 269 270 270 271 272 273 274 275 276 276 277 277 277 277 277 277
262 261 261 262 265 267 269 269 268 267 268 267 268 268 267 267 267 267 267 267 267 267 266 266 266 267 267 267 268 268 269 269 270 270 271 272 273 274 275 276 277 278 278 278 279 278 278 278 278
262 261 261 262 264 267 269 269 269 269 270 269 268 268 268 268 268 268 268 268 268 268 268 268 268 268 269 269 269 269 269 270 271 272 272 274 275 276 277 278 279 279 278 278 278 278 278 278 278
262 262 262 262 264 265 268 269 269 269 270 269 268 267 267 268 269 269 269 269 269 269 270 269 269 269 269 270 270 271 271 271 272 273 274 275 275 276 278 278 279 279 279 279 279 279 279 279 279
Height
5796 5797 5798 5801 5803 5804 5806 5808 5810 5811 5813 5814 5815 5817 5818 5820 5823 5826 5826 5826 5827 5828 5829 5830 5831 5832 5833 5834 5835 5836 5837 5837 5837 5839 5840 5841 5842 5843 5844 5845 5846 5846 5847 5848 5849 5849 5849 5850 5850
5791 5793 5795 5796 5797 5800 5802 5804 5806 5807 5809 5810 5811 5813 5814 5816 5817 5819 5820 5822 5823 5824 5826 5827 5828 5829 5829 5830 5831 5832 5833 5834 5834 5836 5837 5838 5840 5841 5842 5843 5844 5844 5845 5845 5846 5846 5847 5847 5847
5787 5788 5790 5791 5793 5796 5798 5800 5801 5802 5804 5806 5807 5808 5810 5812 5813 5815 5816 5818 5819 5821 5822 5823 5824 5825 5826 5827 5828 5829 5830 5831 5832 5833 5834 5835 5836 5837 5838 5839 5840 5841 5842 5842 5843 5843 5844 5844 5844
5783 5784 5786 5787 5789 5791 5793 5794 5796 5797 5799 5801 5803 5804 5806 5808 5809 5810 5812 5813 5815 5816 5817 5819 5820 5821 5822 5823 5823 5825 5826 5827 5828 5829 5830 5831 5832 5833 5835 5836 5837 5838 5838 5839 5839 5840 5840 5841 5841
5777 5779 5780 5782 5785 5787 5788 5789 5791 5793 5795 5796 5798 5800 5801 5803 5804 5806 5807 5809 5810 5811 5813 5814 5815 5816 5817 5818 5819 5820 5821 5823 5824 5825 5826 5827 5828 5829 5830 5831 5833 5834 5834 5835 5835 5836 5836 5836 5837
5772 5773 5775 5777 5780 5782 5783 5784 5786 5787 5789 5791 5793 5795 5796 5798 5799 5801 5802 5804 5805 5806 5808 5809 5810 5811 5812 5814 5815 5816 5817 5818 5819 5820 5821 5822 5824 5825 5826 5827 5828 5829 5830 5831 5831 5831 5832 5832 5832
5767 5768 5770 5772 5774 5777 5778 5779 5780 5782 5784 5786 5788 5790 5791 5793 5794 5795 5797 5798 5800 5801 5802 5803 5804 5806 5807 5808 5809 5811 5812 5813 5814 5815 5816 5817 5818 5820 5821 5822 5823 5824 5825 5826 5826 5827 5827 5828 5828
5761 5762 5763 5766 5769 5771 5772 5773 5774 5776 5778 5780 5782 5784 5786 5788 5789 5790 5791 5793 5794 5795 5796 5798 5799 5800 5801 5803 5804 5805 5806 5807 5808 5809 5810 5811 5813 5814 5815 5817 5818 5819 5820 5820 5821 5821 5822 5822 5823
5754 5757 5758 5760 5762 5765 5766 5767 5768 5770 5772 5774 5776 5778 5780 5782 5783 5785 5786 5787 5788 5789 5790 5792 5793 5794 5795 5797 5798 5799 5800 5801 5802 5803 5804 5806 5807 5808 5809 5811 5812 5813 5814 5814 5815 5816 5816 5817 5817
5748 5750 5753 5754 5756 5758 5759 5760 5761 5763 5766 5768 5770 5772 5774 5775 5777 5779 5780 5781 5782 5783 5784 5786 5787 5788 5789 5791 5792 5793 5794 5795 5796 5797 5798 5799 5801 5802 5803 5804 5805 5806 5807 5808 5809 5810 5810 5811 5811
5742 5744 5746 5747 5748 5750 5752 5753 5755 5757 5759 5761 5763 5765 5767 5769 5771 5772 5774 5775 5776 5777 5778 5779 5781 5782 5783 5784 5786 5787 5788 5789 5790 5791 5792 5793 5794 5795 5797 5798 5799 5800 5801 5801 5802 5803 5803 5804 5804
5736 5737 5739 5740 5741 5743 5745 5747 5748 5750 5753 5755 5756 5758 5760 5762 5764 5765 5767 5768 5769 5770 5772 5773 5774 5775 5777 5778 5779 5781 5782 5783 5784 5785 5786 5787 5788 5789 5790 5791 5792 5793 5793 5794 5795 5795 5796 5797 5797
5728 5730 5731 5733 5734 5736 5738 5740 5742 5744 5746 5747 5749 5751 5753 5755 5756 5758 5760 5761 5762 5763 5765 5766 5767 5768 5770 5771 5772 5774 5775 5776 5777 5778 5779 5780 5781 5782 5783 5783 5784 5785 5786 5786 5787 5788 5788 5789 5789
5722 5723 5724 5725 5727 5728 5730 5732 5734 5737 5738 5740 5742 5744 5746 5748 5749 5751 5752 5754 5755 5756 5758 5759 5760 5761 5763 5764 5765 5767 5768 5769 5770 5771 5772 5773 5774 5774 5775 5776 5776 5777 5777 5778 5779 5779 5780 5780 5781
5714 5716 5717 5718 5719 5721 5723 5725 5727 5729 5731 5733 5735 5737 5738 5740 5742 5744 5745 5746 5748 5749 5750 5752 5753 5754 5755 5757 5758 5759 5760 5762 5762 5763 5764 5765 5766 5767 5767 5768 5768 5769 5769 5770 5770 5771 5771 5771 5772
5707 5708 5710 5712 5712 5713 5716 5718 5720 5721 5723 5725 5727 5729 5731 5733 5734 5736 5737 5739 5740 5741 5743 5744 5745 5747 5748 5749 5750 5751 5753 5754 5755 5756 5756 5757 5758 5759 5759 5759 5760 5760 5760 5761 5761 5762 5762 5762 5763
5700 5701 5703 5705 5705 5705 5707 5710 5712 5713 5714 5717 5719 5720 5722 5725 5726 5728 5729 5730 5731 5733 5734 5736 5737 5739 5740 5741 5742 5743 5745 5746 5746 5747 5748 5749 5749 5750 5750 5751 5751 5751 5751 5752 5752 5752 5753 5753 5753
5694 5695 5696 5697 5697 5698 5699 5701 5703 5704 5706 5708 5710 5712 5714 5716 5718 5719 5720 5722 5723 5724 5726 5727 5729 5730 5731 5732 5733 5735 5736 5737 5738 5738 5739 5740 5740 5741 5741 5741 5741 5742 5742 5742 5742 5742 5742 5742 5743
5685 5686 5688 5689 5689 5690 5691 5693 5695 5696 5698 5700 5702 5704 5706 5708 5709 5711 5712 5713 5714 5716 5717 5718 5720 5720 5722 5723 5724 5726 5727 5728 5729 5729 5730 5730 5731 5731 5731 5732 5732 5732 5732 5732 5732 5731 5731 5731 5731
5677 5678 5680 5680 5680 5681 5682 5684 5686 5688 5690 5692 5694 5696 5697 5699 5700 5702 5703 5704 5705 5707 5708 5709 5710 5711 5712 5713 5715 5716 5717 5718 5719 5720 5720 5721 5721 5721 5721 5721 5721 5721 5721 5721 5720 5720 5720 5720 5720
5670 5671 5672 5672 5672 5672 5674 5676 5679 5680 5682 5683 5685 5687 5689 5690 5691 5692 5693 5695 5696 5697 5699 5700 5701 5702 5703 5704 5705 5706 5707 5708 5709 5710 5710 5710 5711 5711 5710 5710 5710 5710 5709 5709 5709 5709 5709 5708 5708
5663 5664 5663 5663 5664 5665 5666 5667 5672 5673 5674 5675 5677 5678 5679 5681 5682 5683 5684 5685 5686 5688 5689 5690 5691 5692 5693 5694 5695 5696 5697 5698 5699 5699 5700 5700 5699 5699 5699 5699 5699 5698 5698 5697 5697 5697 5696 5696 5696
5655 5656 5656 5656 5656 5656 5658 5658 5664 5665 5666 5668 5669 5670 5670 5671 5672 5673 5674 5675 5676 5678 5679 5680 5681 5682 5683 5684 5685 5686 5687 5688 5688 5689 5689 5689 5689 5688 5688 5688 5687 5687 5686 5685 5685 5684 5684 5683 5682
5648 5649 5648 5648 5648 5649 5652 5652 5655 5658 5660 5660 5661 5661 5662 5663 5663 5664 5665 5666 5667 5668 5669 5670 5672 5673 5674 5675 5675 5676 5677 5677 5678 5678 5678 5678 5678 5677 5677 5676 5675 5675 5674 5673 5673 5672 5671 5670 5669
5641 5642 5642 5641 5641 5643 5645 5644 5648 5651 5652 5652 5652 5653 5653 5654 5654 5655 5656 5657 5657 5658 5659 5661 5662 5663 5664 5664 5665 5665 5666 5666 5667 5667 5667 5667 5667 5666 5665 5664 5664 5663 5662 5661 5660 5659 5658 5657 5656
5635 5636 5636 5636 5635 5637 5637 5638 5643 5644 5644 5644 5644 5644 5645 5645 5645 5646 5647 5647 5648 5649 5650 5651 5652 5653 5654 5654 5655 5655 5655 5655 5656 5656 5655 5655 5655 5654 5653 5653 5652 5651 5650 5649 5647 5647 5645 5644 5643
5627 5628 5629 5629 5628 5629 5630 5632 5635 5636 5636 5636 5637 5637 5637 5637 5637 5638 5638 5639 5639 5640 5641 5642 5642 5643 5644 5644 5644 5644 5645 5645 5644 5644 5644 5644 5643 5643 5642 5641 5640 5639 5638 5637 5635 5634 5633 5632 5630
5621 5622 5622 5621 5621 5621 5623 5625 5628 5629 5628 5629 5629 5629 5629 5629 5630 5630 5630 5630 5631 5631 5632 5632 5633 5633 5633 5634 5634 5634 5634 5634 5634 5633 5633 5632 5632 5631 5630 5629 5628 5627 5626 5624 5623 5622 5621 5619 5618
5615 5615 5614 5614 5615 5615 5616 5621 5621 5621 5621 5621 5621 5621 5621 5622 5622 5622 5622 5622 5622 5622 5623 5623 5623 5623 5623 5624 5624 5624 5624 5623 5623 5623 5622 5621 5620 5620 5619 5617 5616 5615 5613 5612 5610 5609 5608 5606 5605
5607 5608 5608 5609 5609 5609 5609 5615 5613 5613 5613 5613 5613 5613 5613 5614 5614 5614 5614 5614 5614 5614 5614 5614 5614 5614 5614 5613 5613 5613 5613 5612 5612 5612 5611 5610 5609 5608 5607 5606 5604 5603 5601 5600 5598 5597 5595 5593 5592